Location: Melbourne
(37.8170°S, 144.9670°E)
Time: 06:23:45
(UTC+10:00)

ISS - All Passes

Search period start: 24 September 2014 00:00
Search period end: 04 October 2014 00:00
Orbit: 413 x 416 km, 51.6° (Epoch: 23 September)

Date Brightness Start Highest point End Pass type
(mag) Time Alt. Az. Time Alt. Az. Time Alt. Az.
24 Sep - 11:40:57 10° N 11:43:43 24° NE 11:46:31 10° ESE daylight
24 Sep - 13:17:11 10° W 13:20:19 34° SSW 13:23:28 10° SE daylight
24 Sep - 14:57:11 10° SSW 14:57:51 10° SSW 14:58:31 10° S daylight
24 Sep - 18:11:01 10° SSW 18:13:42 21° SSE 18:16:22 10° E daylight
24 Sep - 19:47:17 10° WSW 19:50:37 51° NW 19:53:53 10° NNE visible
25 Sep - 10:53:19 10° NNE 10:54:58 13° NE 10:56:38 10° E daylight
25 Sep - 12:27:58 10° WNW 12:31:18 58° SW 12:34:40 10° SE daylight
25 Sep - 14:06:55 10° SW 14:08:37 13° SSW 14:10:19 10° S daylight
25 Sep - 17:22:25 10° SSW 17:24:33 15° SSE 17:26:39 10° ESE daylight
25 Sep - 18:58:17 10° SW 19:01:42 83° SE 19:05:05 10° NE visible
26 Sep - 11:38:59 10° NW 11:42:20 76° NE 11:45:44 10° SE daylight
26 Sep - 13:17:02 10° WSW 13:19:24 17° SSW 13:21:46 10° SSE daylight
26 Sep - 16:33:57 10° S 16:35:18 12° SSE 16:36:39 10° SE daylight
26 Sep - 18:09:24 10° SW 18:12:42 46° SE 18:15:59 10° ENE daylight
26 Sep - 19:46:52 10° W 19:49:09 17° NW 19:51:24 10° N visible
27 Sep - 10:50:16 10° NNW 10:53:25 38° NE 10:56:37 10° ESE daylight
27 Sep - 12:27:22 10° W 12:30:13 24° SSW 12:33:05 10° SSE daylight
27 Sep - 17:20:36 10° SSW 17:23:37 28° SSE 17:26:36 10° E daylight
27 Sep - 18:57:16 10° WSW 19:00:19 31° NW 19:03:19 10° NNE visible
28 Sep - 10:01:57 10° N 10:04:33 21° NE 10:07:10 10° E daylight
28 Sep - 11:37:54 10° WNW 11:41:05 38° SSW 11:44:18 10° SE daylight
28 Sep - 13:17:37 10° SSW 13:18:34 11° SSW 13:19:31 10° S daylight
28 Sep - 16:31:52 10° SSW 16:34:26 20° SSE 16:36:59 10° ESE daylight
28 Sep - 18:08:02 10° WSW 18:11:23 59° NW 18:14:43 10° NE daylight
29 Sep - 09:14:35 10° NNE 09:15:43 11° NE 09:16:52 10° ENE daylight
29 Sep - 10:48:39 10° WNW 10:52:00 67° SW 10:55:23 10° SE daylight
29 Sep - 12:27:23 10° SW 12:29:14 14° SSW 12:31:06 10° SSE daylight
29 Sep - 15:43:12 10° SSW 15:45:10 14° SSE 15:47:07 10° SE daylight
29 Sep - 17:18:58 10° SW 17:22:22 73° SE 17:25:44 10° NE daylight
29 Sep - 18:57:58 10° WNW 18:58:37 10° NW 18:59:15 10° NW visible
30 Sep - 09:59:37 10° NW 10:02:57 65° NE 10:06:19 10° SE daylight
30 Sep - 11:37:28 10° WSW 11:39:56 19° SSW 11:42:26 10° SSE daylight
30 Sep - 14:54:42 10° S 14:55:49 11° SSE 14:56:55 10° SE daylight
30 Sep - 16:30:01 10° SW 16:33:16 40° SE 16:36:29 10° ENE daylight
30 Sep - 18:07:15 10° W 18:09:45 19° NW 18:12:14 10° N daylight
01 Oct - 09:10:54 10° NNW 09:13:57 33° NE 09:17:03 10° ESE daylight
01 Oct - 10:47:45 10° W 10:50:41 27° SSW 10:53:38 10° SSE daylight
01 Oct - 15:41:08 10° SSW 15:44:03 26° SSE 15:46:57 10° E daylight
01 Oct - 17:17:40 10° WSW 17:20:49 35° NW 17:23:55 10° NNE daylight
02 Oct - 08:22:37 10° N 08:25:00 18° NE 08:27:24 10° E daylight
02 Oct - 09:58:14 10° WNW 10:01:28 42° SW 10:04:44 10° SE daylight
02 Oct - 11:37:41 10° SW 11:38:53 11° SSW 11:40:06 10° S daylight
02 Oct - 14:52:19 10° SSW 14:54:46 18° SSE 14:57:11 10° ESE daylight
02 Oct - 16:28:23 10° SW 16:31:46 70° NW 16:35:07 10° NE daylight
03 Oct - 09:08:56 10° NW 09:12:18 77° SW 09:15:42 10° SE daylight
03 Oct - 10:47:28 10° WSW 10:49:28 15° SSW 10:51:30 10° SSE daylight
03 Oct - 14:03:36 10° SSW 14:05:23 13° SSE 14:07:10 10° SE daylight
03 Oct - 15:39:16 10° SW 15:42:39 63° SE 15:45:59 10° ENE daylight
03 Oct - 17:17:31 10° WNW 17:18:56 12° NW 17:20:21 10° NNW daylight
